Time,TemperatureF,DewpointF,PressureIn,WindDirection,WindDirectionDegrees,WindSpeedMPH,WindSpeedGustMPH,Humidity,HourlyPrecipIn,Conditions,Clouds,dailyrainin,SoftwareType,DateUTC
2013-01-28 00:00:00,35.4,15.6,28.02,SSE,166,6.0,9.0,44,0.00,RA,,0.00,WeatherDisplay:10.37,2013-01-28 05:00:00,
2013-01-28 00:05:00,35.6,15.8,28.02,SSE,167,5.0,10.0,44,0.00,RA,,0.00,WeatherDisplay:10.37,2013-01-28 05:05:00,
2013-01-28 00:10:00,35.7,16.4,28.02,SSE,167,3.0,8.0,45,0.00,CLR,,0.00,WeatherDisplay:10.37,2013-01-28 05:10:00,
2013-01-28 00:15:00,35.8,16.5,28.02,South,174,1.0,7.0,45,0.00,CLR,,0.00,WeatherDisplay:10.37,2013-01-28 05:15:00,
2013-01-28 00:20:00,35.8,16.5,28.02,South,177,3.0,7.0,45,0.00,CLR,,0.00,WeatherDisplay:10.37,2013-01-28 05:20:00,
2013-01-28 00:25:00,35.8,16.5,28.02,South,171,3.0,6.0,45,0.00,CLR,,0.00,WeatherDisplay:10.37,2013-01-28 05:25:00,
2013-01-28 00:30:00,35.8,16.5,28.02,South,178,3.0,6.0,45,0.00,CLR,,0.00,WeatherDisplay:10.37,2013-01-28 05:30:00,
2013-01-28 00:35:00,36.0,16.7,28.02,South,177,3.0,6.0,45,0.00,CLR,,0.00,WeatherDisplay:10.37,2013-01-28 05:35:00,
2013-01-28 00:40:00,36.0,17.2,28.02,South,180,2.0,8.0,46,0.00,CLR,,0.00,WeatherDisplay:10.37,2013-01-28 05:40:00,
2013-01-28 00:45:00,36.1,17.3,28.02,South,179,3.0,6.0,46,0.00,CLR,,0.00,WeatherDisplay:10.37,2013-01-28 05:45:00,
2013-01-28 00:55:00,36.3,17.5,28.02,South,184,2.0,7.0,46,0.00,CLR,,0.00,WeatherDisplay:10.37,2013-01-28 05:55:00,
2013-01-28 01:00:00,36.1,17.3,28.02,South,180,3.0,5.0,46,0.00,CLR,,0.00,WeatherDisplay:10.37,2013-01-28 06:00:00,
2013-01-28 01:10:00,36.3,18.0,27.99,South,183,3.0,4.0,47,0.00,CLR,,0.00,WeatherDisplay:10.37,2013-01-28 06:10:00,
2013-01-28 01:15:00,36.5,18.6,27.99,South,185,3.0,4.0,48,0.00,CLR,,0.00,WeatherDisplay:10.37,2013-01-28 06:15:00,
2013-01-28 01:20:00,36.7,19.8,27.99,South,177,3.0,6.0,50,0.00,CLR,,0.00,WeatherDisplay:10.37,2013-01-28 06:20:00,
2013-01-28 01:25:00,36.9,19.9,27.99,South,181,5.0,9.0,50,0.00,CLR,,0.00,WeatherDisplay:10.37,2013-01-28 06:25:00,
2013-01-28 01:30:00,37.0,21.0,27.99,South,181,5.0,8.0,52,0.00,CLR,,0.00,WeatherDisplay:10.37,2013-01-28 06:30:00,
2013-01-28 01:40:00,37.4,22.7,27.99,South,189,6.0,10.0,55,0.00,CLR,,0.00,WeatherDisplay:10.37,2013-01-28 06:40:00,
2013-01-28 01:45:00,37.6,23.7,27.99,South,189,7.0,13.0,57,0.00,CLR,,0.00,WeatherDisplay:10.37,2013-01-28 06:45:00,
2013-01-28 01:50:00,37.8,24.3,27.99,South,182,5.0,11.0,58,0.00,CLR,,0.00,WeatherDisplay:10.37,2013-01-28 06:50:00,
2013-01-28 01:55:00,37.8,24.7,27.97,South,184,5.0,9.0,59,0.00,CLR,,0.00,WeatherDisplay:10.37,2013-01-28 06:55:00,
2013-01-28 02:00:00,37.9,25.7,27.97,SSW,195,5.0,7.0,61,0.00,CLR,,0.00,WeatherDisplay:10.37,2013-01-28 07:00:00,
2013-01-28 02:05:00,38.3,28.0,27.97,South,190,5.0,8.0,66,0.00,CLR,,0.00,WeatherDisplay:10.37,2013-01-28 07:05:00,
2013-01-28 02:10:00,38.9,29.9,27.93,SSW,194,6.0,9.0,70,0.00,CLR,,0.00,WeatherDisplay:10.37,2013-01-28 07:10:00,
2013-01-28 02:15:00,39.2,30.2,27.93,South,189,5.0,8.0,70,0.00,CLR,,0.00,WeatherDisplay:10.37,2013-01-28 07:15:00,
2013-01-28 02:25:00,39.0,29.7,27.97,SSW,196,3.0,8.0,69,0.00,CLR,,0.00,WeatherDisplay:10.37,2013-01-28 07:25:00,
2013-01-28 02:30:00,39.3,30.3,27.97,SSW,198,5.0,6.0,70,0.00,CLR,,0.00,WeatherDisplay:10.37,2013-01-28 07:30:00,
2013-01-28 02:35:00,39.6,30.9,27.97,SSW,200,3.0,8.0,71,0.00,CLR,,0.00,WeatherDisplay:10.37,2013-01-28 07:35:00,
2013-01-28 02:40:00,39.6,30.9,27.97,SSW,206,5.0,8.0,71,0.00,CLR,,0.00,WeatherDisplay:10.37,2013-01-28 07:40:00,
2013-01-28 02:45:00,39.7,31.1,27.97,SSW,203,5.0,8.0,71,0.00,CLR,,0.00,WeatherDisplay:10.37,2013-01-28 07:45:00,
2013-01-28 02:50:00,39.7,31.1,27.97,SSW,208,5.0,12.0,71,0.00,CLR,,0.00,WeatherDisplay:10.37,2013-01-28 07:50:00,
2013-01-28 02:55:00,39.7,31.1,27.97,SW,214,2.0,6.0,71,0.00,CLR,,0.00,WeatherDisplay:10.37,2013-01-28 07:55:00,
2013-01-28 03:00:00,39.9,31.3,27.97,SSW,213,3.0,9.0,71,0.00,CLR,,0.00,WeatherDisplay:10.37,2013-01-28 08:00:00,
2013-01-28 03:05:00,40.3,32.0,27.97,SSW,208,3.0,6.0,72,0.00,CLR,,0.00,WeatherDisplay:10.37,2013-01-28 08:05:00,
2013-01-28 03:10:00,40.6,33.0,27.97,SSW,200,3.0,8.0,74,0.00,CLR,,0.00,WeatherDisplay:10.37,2013-01-28 08:10:00,
2013-01-28 03:15:00,41.0,33.3,27.97,SSW,208,3.0,8.0,74,0.00,CLR,,0.00,WeatherDisplay:10.37,2013-01-28 08:15:00,
2013-01-28 03:20:00,41.2,33.5,27.97,SSW,213,5.0,8.0,74,0.00,CLR,,0.00,WeatherDisplay:10.37,2013-01-28 08:20:00,
2013-01-28 03:25:00,41.6,33.9,27.97,SSW,212,7.0,11.0,74,0.00,CLR,,0.00,WeatherDisplay:10.37,2013-01-28 08:25:00,
2013-01-28 03:30:00,42.1,34.8,27.97,SW,218,7.0,12.0,75,0.00,CLR,,0.00,WeatherDisplay:10.37,2013-01-28 08:30:00,
2013-01-28 03:35:00,42.6,35.5,27.97,SW,223,7.0,12.0,76,0.00,CLR,,0.00,WeatherDisplay:10.37,2013-01-28 08:35:00,
2013-01-28 03:45:00,43.0,35.9,27.97,SW,217,5.0,8.0,76,0.00,CLR,,0.00,WeatherDisplay:10.37,2013-01-28 08:45:00,
2013-01-28 03:50:00,43.0,35.9,27.97,SSW,212,6.0,12.0,76,0.00,CLR,,0.00,WeatherDisplay:10.37,2013-01-28 08:50:00,
2013-01-28 03:55:00,43.0,35.6,27.97,SW,216,6.0,13.0,75,0.00,CLR,,0.00,WeatherDisplay:10.37,2013-01-28 08:55:00,
2013-01-28 04:00:00,42.8,35.4,27.97,SW,214,6.0,13.0,75,0.00,CLR,,0.00,WeatherDisplay:10.37,2013-01-28 09:00:00,
2013-01-28 04:05:00,42.8,35.4,27.97,SSW,212,6.0,12.0,75,0.00,CLR,,0.00,WeatherDisplay:10.37,2013-01-28 09:05:00,
2013-01-28 04:10:00,43.0,35.6,27.93,SSW,212,6.0,10.0,75,0.00,CLR,,0.00,WeatherDisplay:10.37,2013-01-28 09:10:00,
2013-01-28 04:15:00,43.0,35.9,27.93,SW,216,9.0,12.0,76,0.00,CLR,,0.00,WeatherDisplay:10.37,2013-01-28 09:15:00,
2013-01-28 04:20:00,43.0,35.9,27.93,SSW,209,7.0,12.0,76,0.00,CLR,,0.00,WeatherDisplay:10.37,2013-01-28 09:20:00,
2013-01-28 04:25:00,43.1,36.1,27.93,SSW,202,7.0,12.0,76,0.00,CLR,,0.00,WeatherDisplay:10.37,2013-01-28 09:25:00,
2013-01-28 04:30:00,43.3,36.3,27.93,SSW,203,7.0,13.0,76,0.00,CLR,,0.00,WeatherDisplay:10.37,2013-01-28 09:30:00,
2013-01-28 04:35:00,43.3,36.3,27.93,SW,226,8.0,13.0,76,0.00,CLR,,0.00,WeatherDisplay:10.37,2013-01-28 09:35:00,
2013-01-28 04:40:00,43.3,35.9,27.93,SW,225,7.0,14.0,75,0.00,CLR,,0.00,WeatherDisplay:10.37,2013-01-28 09:40:00,
2013-01-28 04:45:00,43.2,35.8,27.93,SW,216,7.0,10.0,75,0.00,CLR,,0.00,WeatherDisplay:10.37,2013-01-28 09:45:00,
2013-01-28 04:50:00,43.2,35.8,27.93,SW,222,6.0,9.0,75,0.00,CLR,,0.00,WeatherDisplay:10.37,2013-01-28 09:50:00,
2013-01-28 04:55:00,43.2,35.8,27.93,SW,219,7.0,11.0,75,0.00,CLR,,0.00,WeatherDisplay:10.37,2013-01-28 09:55:00,
2013-01-28 05:00:00,43.2,35.8,27.93,SW,215,6.0,10.0,75,0.00,CLR,,0.00,WeatherDisplay:10.37,2013-01-28 10:00:00,
2013-01-28 05:05:00,43.2,35.8,27.93,SW,215,6.0,13.0,75,0.00,CLR,,0.00,WeatherDisplay:10.37,2013-01-28 10:05:00,
2013-01-28 05:10:00,43.2,35.8,27.93,SW,215,5.0,13.0,75,0.00,CLR,,0.00,WeatherDisplay:10.37,2013-01-28 10:10:00,
2013-01-28 05:15:00,43.2,35.8,27.93,SSW,213,6.0,8.0,75,0.00,CLR,,0.00,WeatherDisplay:10.37,2013-01-28 10:15:00,
2013-01-28 05:20:00,43.2,35.8,27.93,SW,217,7.0,13.0,75,0.00,CLR,,0.00,WeatherDisplay:10.37,2013-01-28 10:20:00,
2013-01-28 05:25:00,43.3,35.9,27.93,SW,214,7.0,12.0,75,0.00,CLR,,0.00,WeatherDisplay:10.37,2013-01-28 10:25:00,
2013-01-28 05:30:00,43.3,35.6,27.93,SSW,209,5.0,9.0,74,0.00,CLR,,0.00,WeatherDisplay:10.37,2013-01-28 10:30:00,
2013-01-28 05:35:00,43.3,35.6,27.93,SW,215,6.0,13.0,74,0.00,CLR,,0.00,WeatherDisplay:10.37,2013-01-28 10:35:00,
2013-01-28 05:40:00,43.3,35.6,27.93,SSW,210,3.0,8.0,74,0.00,CLR,,0.00,WeatherDisplay:10.37,2013-01-28 10:40:00,
2013-01-28 05:45:00,43.3,35.6,27.93,SSW,210,3.0,10.0,74,0.00,CLR,,0.00,WeatherDisplay:10.37,2013-01-28 10:45:00,
2013-01-28 05:50:00,43.3,35.6,27.93,SW,214,5.0,8.0,74,0.00,CLR,,0.00,WeatherDisplay:10.37,2013-01-28 10:50:00,
2013-01-28 05:55:00,43.3,35.6,27.93,SW,215,3.0,8.0,74,0.00,CLR,,0.00,WeatherDisplay:10.37,2013-01-28 10:55:00,
2013-01-28 06:00:00,43.3,35.6,27.93,SW,219,5.0,8.0,74,0.00,CLR,,0.00,WeatherDisplay:10.37,2013-01-28 11:00:00,
2013-01-28 06:05:00,43.3,35.6,27.93,SW,217,5.0,10.0,74,0.00,CLR,,0.00,WeatherDisplay:10.37,2013-01-28 11:05:00,
2013-01-28 06:10:00,43.5,35.8,27.91,SW,217,5.0,11.0,74,0.00,CLR,,0.00,WeatherDisplay:10.37,2013-01-28 11:10:00,
2013-01-28 06:15:00,43.5,36.1,27.91,SW,218,6.0,9.0,75,0.00,CLR,,0.00,WeatherDisplay:10.37,2013-01-28 11:15:00,
2013-01-28 06:20:00,43.7,36.3,27.91,SSW,213,6.0,11.0,75,0.00,CLR,,0.00,WeatherDisplay:10.37,2013-01-28 11:20:00,
2013-01-28 06:25:00,43.7,36.3,27.91,SW,221,7.0,12.0,75,0.00,CLR,,0.00,WeatherDisplay:10.37,2013-01-28 11:25:00,
2013-01-28 06:30:00,43.7,36.3,27.91,SW,222,5.0,11.0,75,0.00,CLR,,0.00,WeatherDisplay:10.37,2013-01-28 11:30:00,
2013-01-28 06:40:00,43.9,36.4,27.93,SW,216,5.0,8.0,75,0.00,CLR,,0.00,WeatherDisplay:10.37,2013-01-28 11:40:00,
2013-01-28 06:45:00,43.9,36.5,27.93,SW,224,6.0,12.0,75,0.00,CLR,,0.00,WeatherDisplay:10.37,2013-01-28 11:45:00,
2013-01-28 06:50:00,44.1,36.6,27.93,SW,225,6.0,12.0,75,0.00,CLR,,0.00,WeatherDisplay:10.37,2013-01-28 11:50:00,
2013-01-28 06:55:00,43.9,36.5,27.91,SW,217,6.0,9.0,75,0.00,CLR,,0.00,WeatherDisplay:10.37,2013-01-28 11:55:00,
2013-01-28 07:00:00,44.1,36.6,27.91,SW,220,6.0,11.0,75,0.00,CLR,,0.00,WeatherDisplay:10.37,2013-01-28 12:00:00,
2013-01-28 07:05:00,44.1,37.0,27.91,SW,218,5.0,9.0,76,0.00,CLR,,0.00,WeatherDisplay:10.37,2013-01-28 12:05:00,
2013-01-28 07:10:00,44.1,37.0,27.93,SW,217,7.0,13.0,76,0.00,CLR,,0.00,WeatherDisplay:10.37,2013-01-28 12:10:00,
2013-01-28 07:15:00,44.2,37.2,27.93,SW,216,5.0,9.0,76,0.00,CLR,,0.00,WeatherDisplay:10.37,2013-01-28 12:15:00,
2013-01-28 07:20:00,44.2,37.2,27.93,SSW,207,5.0,11.0,76,0.00,CLR,,0.00,WeatherDisplay:10.37,2013-01-28 12:20:00,
2013-01-28 07:25:00,44.2,37.2,27.91,SSW,210,3.0,10.0,76,0.00,CLR,,0.00,WeatherDisplay:10.37,2013-01-28 12:25:00,
2013-01-28 07:30:00,44.4,37.3,27.91,SW,214,5.0,8.0,76,0.00,CLR,,0.00,WeatherDisplay:10.37,2013-01-28 12:30:00,
2013-01-28 07:35:00,44.4,37.3,27.91,SW,215,6.0,9.0,76,0.00,CLR,,0.00,WeatherDisplay:10.37,2013-01-28 12:35:00,
2013-01-28 07:40:00,44.4,37.3,27.91,SSW,213,5.0,12.0,76,0.00,CLR,,0.00,WeatherDisplay:10.37,2013-01-28 12:40:00,
2013-01-28 07:45:00,44.6,37.5,27.91,SSW,211,7.0,11.0,76,0.00,CLR,,0.00,WeatherDisplay:10.37,2013-01-28 12:45:00,
2013-01-28 07:50:00,44.8,37.7,27.91,SSW,207,5.0,9.0,76,0.00,CLR,,0.00,WeatherDisplay:10.37,2013-01-28 12:50:00,
2013-01-28 07:55:00,44.8,37.7,27.91,SSW,207,3.0,8.0,76,0.00,CLR,,0.00,WeatherDisplay:10.37,2013-01-28 12:55:00,
2013-01-28 08:00:00,44.8,37.7,27.91,SW,214,5.0,10.0,76,0.00,CLR,,0.00,WeatherDisplay:10.37,2013-01-28 13:00:00,
2013-01-28 08:05:00,45.0,37.8,27.91,SW,220,5.0,10.0,76,0.00,CLR,,0.00,WeatherDisplay:10.37,2013-01-28 13:05:00,
2013-01-28 08:10:00,45.1,38.0,27.91,SW,222,5.0,9.0,76,0.00,CLR,,0.00,WeatherDisplay:10.37,2013-01-28 13:10:00,
2013-01-28 08:15:00,45.3,38.2,27.91,SW,222,5.0,10.0,76,0.00,CLR,,0.00,WeatherDisplay:10.37,2013-01-28 13:15:00,
2013-01-28 08:20:00,45.3,38.2,27.91,SW,214,6.0,11.0,76,0.00,CLR,,0.00,WeatherDisplay:10.37,2013-01-28 13:20:00,
2013-01-28 08:25:00,45.5,38.4,27.91,SSW,209,6.0,8.0,76,0.00,CLR,,0.00,WeatherDisplay:10.37,2013-01-28 13:25:00,
2013-01-28 08:30:00,45.5,38.4,27.91,SSW,212,6.0,15.0,76,0.00,CLR,,0.00,WeatherDisplay:10.37,2013-01-28 13:30:00,
2013-01-28 08:35:00,45.7,38.5,27.91,SSW,213,7.0,12.0,76,0.00,CLR,,0.00,WeatherDisplay:10.37,2013-01-28 13:35:00,
2013-01-28 08:40:00,45.9,38.7,27.93,SSW,208,6.0,8.0,76,0.00,CLR,,0.00,WeatherDisplay:10.37,2013-01-28 13:40:00,
2013-01-28 08:45:00,45.9,38.7,27.93,SSW,206,5.0,12.0,76,0.00,CLR,,0.00,WeatherDisplay:10.37,2013-01-28 13:45:00,
2013-01-28 08:50:00,45.9,38.7,27.93,SW,219,6.0,12.0,76,0.00,CLR,,0.00,WeatherDisplay:10.37,2013-01-28 13:50:00,
2013-01-28 08:55:00,46.0,38.9,27.91,SW,216,6.0,13.0,76,0.00,CLR,,0.00,WeatherDisplay:10.37,2013-01-28 13:55:00,
2013-01-28 09:00:00,46.2,39.1,27.91,SSW,210,6.0,13.0,76,0.00,CLR,,0.00,WeatherDisplay:10.37,2013-01-28 14:00:00,
2013-01-28 09:05:00,46.4,38.9,27.91,SSW,213,7.0,12.0,75,0.00,CLR,,0.00,WeatherDisplay:10.37,2013-01-28 14:05:00,
2013-01-28 09:10:00,46.4,38.9,27.91,SW,219,7.0,12.0,75,0.00,CLR,,0.00,WeatherDisplay:10.37,2013-01-28 14:10:00,
2013-01-28 09:15:00,46.5,39.0,27.91,SW,214,6.0,10.0,75,0.00,CLR,,0.00,WeatherDisplay:10.37,2013-01-28 14:15:00,
2013-01-28 09:20:00,46.6,38.7,27.91,SW,214,6.0,13.0,74,0.00,CLR,,0.00,WeatherDisplay:10.37,2013-01-28 14:20:00,
2013-01-28 09:25:00,46.8,38.9,27.91,SW,214,6.0,12.0,74,0.00,CLR,,0.00,WeatherDisplay:10.37,2013-01-28 14:25:00,
2013-01-28 09:35:00,46.9,38.4,27.91,SW,222,7.0,13.0,72,0.00,CLR,,0.00,WeatherDisplay:10.37,2013-01-28 14:35:00,
2013-01-28 09:40:00,47.1,37.9,27.91,SW,224,6.0,10.0,70,0.00,CLR,,0.00,WeatherDisplay:10.37,2013-01-28 14:40:00,
2013-01-28 09:45:00,47.3,37.6,27.91,SW,224,6.0,13.0,69,0.00,CLR,,0.00,WeatherDisplay:10.37,2013-01-28 14:45:00,
2013-01-28 09:50:00,47.3,36.1,27.91,SW,222,6.0,12.0,65,0.00,CLR,,0.00,WeatherDisplay:10.37,2013-01-28 14:50:00,
2013-01-28 09:55:00,47.3,34.5,27.91,SW,220,6.0,13.0,61,0.00,CLR,,0.00,WeatherDisplay:10.37,2013-01-28 14:55:00,
2013-01-28 10:00:00,47.3,33.3,27.91,SW,217,6.0,11.0,58,0.00,CLR,,0.00,WeatherDisplay:10.37,2013-01-28 15:00:00,
2013-01-28 10:05:00,47.1,30.9,27.91,SW,224,5.0,10.0,53,0.00,CLR,,0.00,WeatherDisplay:10.37,2013-01-28 15:05:00,
2013-01-28 10:10:00,47.3,30.1,27.91,SW,224,6.0,13.0,51,0.00,CLR,,0.00,WeatherDisplay:10.37,2013-01-28 15:10:00,
2013-01-28 10:15:00,47.3,28.6,27.91,SW,226,5.0,11.0,48,0.00,CLR,,0.00,WeatherDisplay:10.37,2013-01-28 15:15:00,
2013-01-28 10:20:00,47.3,27.5,27.91,SW,219,7.0,11.0,46,0.00,CLR,,0.00,WeatherDisplay:10.37,2013-01-28 15:20:00,
2013-01-28 10:25:00,47.3,27.0,27.93,SW,217,7.0,13.0,45,0.00,CLR,,0.00,WeatherDisplay:10.37,2013-01-28 15:25:00,
2013-01-28 10:30:00,47.3,26.5,27.93,SSW,213,6.0,9.0,44,0.00,CLR,,0.00,WeatherDisplay:10.37,2013-01-28 15:30:00,
2013-01-28 10:35:00,47.3,27.0,27.93,SW,217,5.0,12.0,45,0.00,CLR,,0.00,WeatherDisplay:10.37,2013-01-28 15:35:00,
2013-01-28 10:40:00,47.4,27.1,27.93,SW,214,6.0,11.0,45,0.00,CLR,,0.00,WeatherDisplay:10.37,2013-01-28 15:40:00,
2013-01-28 10:45:00,47.3,26.5,27.93,SSW,210,6.0,10.0,44,0.00,CLR,,0.00,WeatherDisplay:10.37,2013-01-28 15:45:00,
2013-01-28 10:50:00,47.3,26.5,27.93,SSW,209,5.0,8.0,44,0.00,CLR,,0.00,WeatherDisplay:10.37,2013-01-28 15:50:00,
2013-01-28 10:55:00,47.3,26.5,27.93,SW,215,6.0,12.0,44,0.00,CLR,,0.00,WeatherDisplay:10.37,2013-01-28 15:55:00,
2013-01-28 11:00:00,47.3,26.5,27.93,SSW,211,5.0,11.0,44,0.00,CLR,,0.00,WeatherDisplay:10.37,2013-01-28 16:00:00,
2013-01-28 11:05:00,47.3,27.0,27.93,SSW,210,5.0,9.0,45,0.00,CLR,,0.00,WeatherDisplay:10.37,2013-01-28 16:05:00,
2013-01-28 11:10:00,47.3,26.5,27.93,SSW,210,5.0,9.0,44,0.00,CLR,,0.00,WeatherDisplay:10.37,2013-01-28 16:10:00,
2013-01-28 11:20:00,47.3,27.0,27.93,SSW,213,5.0,8.0,45,0.00,CLR,,0.00,WeatherDisplay:10.37,2013-01-28 16:20:00,
2013-01-28 11:25:00,47.4,26.5,27.93,SSW,209,5.0,10.0,44,0.00,CLR,,0.00,WeatherDisplay:10.37,2013-01-28 16:25:00,
2013-01-28 11:30:00,47.7,26.8,27.93,SW,215,6.0,8.0,44,0.00,CLR,,0.00,WeatherDisplay:10.37,2013-01-28 16:30:00,
2013-01-28 11:35:00,47.8,26.4,27.93,SSW,208,6.0,8.0,43,0.00,CLR,,0.00,WeatherDisplay:10.37,2013-01-28 16:35:00,
2013-01-28 11:40:00,47.8,25.8,27.93,SSW,206,6.0,11.0,42,0.00,CLR,,0.00,WeatherDisplay:10.37,2013-01-28 16:40:00,
2013-01-28 11:50:00,48.6,25.3,27.93,SW,219,8.0,15.0,40,0.00,CLR,,0.00,WeatherDisplay:10.37,2013-01-28 16:50:00,
2013-01-28 11:55:00,48.6,24.7,27.97,SSW,208,6.0,10.0,39,0.00,CLR,,0.00,WeatherDisplay:10.37,2013-01-28 16:55:00,
2013-01-28 12:00:00,48.6,24.7,27.97,SW,214,8.0,14.0,39,0.00,CLR,,0.00,WeatherDisplay:10.37,2013-01-28 17:00:00,
2013-01-28 12:05:00,48.6,24.1,27.97,SW,223,6.0,11.0,38,0.00,CLR,,0.00,WeatherDisplay:10.37,2013-01-28 17:05:00,
2013-01-28 12:10:00,48.6,24.1,27.97,SW,225,7.0,9.0,38,0.00,CLR,,0.00,WeatherDisplay:10.37,2013-01-28 17:10:00,
2013-01-28 12:15:00,48.6,24.1,27.97,SW,227,7.0,13.0,38,0.00,CLR,,0.00,WeatherDisplay:10.37,2013-01-28 17:15:00,
2013-01-28 12:20:00,48.7,24.2,27.97,SW,222,6.0,13.0,38,0.00,CLR,,0.00,WeatherDisplay:10.37,2013-01-28 17:20:00,
2013-01-28 12:25:00,48.9,24.4,27.97,SW,223,6.0,13.0,38,0.00,CLR,,0.00,WeatherDisplay:10.37,2013-01-28 17:25:00,
2013-01-28 12:30:00,49.1,24.6,27.97,SW,223,8.0,15.0,38,0.00,CLR,,0.00,WeatherDisplay:10.37,2013-01-28 17:30:00,
2013-01-28 12:35:00,49.5,24.9,27.97,SW,219,7.0,12.0,38,0.00,CLR,,0.00,WeatherDisplay:10.37,2013-01-28 17:35:00,
2013-01-28 12:40:00,49.5,24.2,27.97,SW,220,8.0,13.0,37,0.00,CLR,,0.00,WeatherDisplay:10.37,2013-01-28 17:40:00,
2013-01-28 12:45:00,49.5,24.2,27.97,SW,225,8.0,14.0,37,0.00,CLR,,0.00,WeatherDisplay:10.37,2013-01-28 17:45:00,
2013-01-28 12:50:00,49.5,24.2,27.97,SW,223,7.0,15.0,37,0.00,CLR,,0.00,WeatherDisplay:10.37,2013-01-28 17:50:00,
2013-01-28 13:10:00,49.5,24.9,27.93,SW,227,6.0,13.0,38,0.00,CLR,,0.00,WeatherDisplay:10.37,2013-01-28 18:10:00,
2013-01-28 13:15:00,49.6,25.0,27.93,SW,225,8.0,13.0,38,0.00,CLR,,0.00,WeatherDisplay:10.37,2013-01-28 18:15:00,
2013-01-28 13:20:00,49.6,25.0,27.93,SW,226,9.0,13.0,38,0.00,CLR,,0.00,WeatherDisplay:10.37,2013-01-28 18:20:00,
2013-01-28 13:25:00,49.6,25.0,27.93,SW,228,6.0,10.0,38,0.00,CLR,,0.00,WeatherDisplay:10.37,2013-01-28 18:25:00,
2013-01-28 13:30:00,49.5,25.6,27.93,SW,227,6.0,10.0,39,0.00,CLR,,0.00,WeatherDisplay:10.37,2013-01-28 18:30:00,
2013-01-28 13:35:00,49.6,25.7,27.93,SW,226,8.0,12.0,39,0.00,CLR,,0.00,WeatherDisplay:10.37,2013-01-28 18:35:00,
2013-01-28 13:40:00,49.6,26.3,27.93,SW,235,8.0,12.0,40,0.00,CLR,,0.00,WeatherDisplay:10.37,2013-01-28 18:40:00,
2013-01-28 13:45:00,49.6,26.3,27.93,SW,233,8.0,13.0,40,0.00,CLR,,0.00,WeatherDisplay:10.37,2013-01-28 18:45:00,
2013-01-28 13:50:00,49.6,26.9,27.93,SW,228,8.0,13.0,41,0.00,CLR,,0.00,WeatherDisplay:10.37,2013-01-28 18:50:00,
2013-01-28 13:55:00,49.6,27.5,27.93,SW,231,7.0,15.0,42,0.00,CLR,,0.00,WeatherDisplay:10.37,2013-01-28 18:55:00,
2013-01-28 14:00:00,49.8,27.6,27.93,SW,229,7.0,13.0,42,0.00,CLR,,0.00,WeatherDisplay:10.37,2013-01-28 19:00:00,
2013-01-28 14:05:00,49.8,28.2,27.93,SW,230,7.0,13.0,43,0.00,CLR,,0.00,WeatherDisplay:10.37,2013-01-28 19:05:00,
2013-01-28 14:10:00,49.8,27.6,27.93,SW,233,7.0,13.0,42,0.00,CLR,,0.00,WeatherDisplay:10.37,2013-01-28 19:10:00,
2013-01-28 14:15:00,50.0,28.4,27.93,SW,233,6.0,10.0,43,0.00,CLR,,0.00,WeatherDisplay:10.37,2013-01-28 19:15:00,
2013-01-28 14:20:00,50.0,28.9,27.93,SW,225,7.0,11.0,44,0.00,CLR,,0.00,WeatherDisplay:10.37,2013-01-28 19:20:00,
2013-01-28 14:25:00,50.2,29.1,27.93,SW,223,6.0,10.0,44,0.00,CLR,,0.00,WeatherDisplay:10.37,2013-01-28 19:25:00,
2013-01-28 14:30:00,50.0,28.9,27.93,SW,223,6.0,9.0,44,0.00,CLR,,0.00,WeatherDisplay:10.37,2013-01-28 19:30:00,
2013-01-28 14:35:00,50.0,29.5,27.93,SW,223,6.0,9.0,45,0.00,CLR,,0.00,WeatherDisplay:10.37,2013-01-28 19:35:00,
2013-01-28 14:45:00,50.2,30.2,27.93,SW,219,6.0,13.0,46,0.00,CLR,,0.00,WeatherDisplay:10.37,2013-01-28 19:45:00,
2013-01-28 14:50:00,50.2,30.2,27.93,SW,219,6.0,11.0,46,0.00,CLR,,0.00,WeatherDisplay:10.37,2013-01-28 19:50:00,
2013-01-28 14:55:00,50.2,30.7,27.93,SW,223,6.0,11.0,47,0.00,CLR,,0.00,WeatherDisplay:10.37,2013-01-28 19:55:00,
2013-01-28 15:00:00,50.2,30.7,27.93,SW,232,6.0,13.0,47,0.00,CLR,,0.00,WeatherDisplay:10.37,2013-01-28 20:00:00,
2013-01-28 15:05:00,50.2,31.2,27.93,SW,227,6.0,9.0,48,0.00,CLR,,0.00,WeatherDisplay:10.37,2013-01-28 20:05:00,
2013-01-28 15:10:00,50.2,31.2,27.93,SW,224,6.0,10.0,48,0.00,CLR,,0.00,WeatherDisplay:10.37,2013-01-28 20:10:00,
2013-01-28 15:15:00,50.2,31.2,27.93,SW,224,5.0,12.0,48,0.00,CLR,,0.00,WeatherDisplay:10.37,2013-01-28 20:15:00,
2013-01-28 15:20:00,50.2,31.7,27.93,SW,226,8.0,11.0,49,0.00,CLR,,0.00,WeatherDisplay:10.37,2013-01-28 20:20:00,
2013-01-28 15:25:00,50.2,31.7,27.93,SW,235,6.0,9.0,49,0.00,CLR,,0.00,WeatherDisplay:10.37,2013-01-28 20:25:00,
2013-01-28 15:30:00,50.2,32.2,27.93,SW,230,7.0,12.0,50,0.00,CLR,,0.00,WeatherDisplay:10.37,2013-01-28 20:30:00,
2013-01-28 15:35:00,50.4,32.9,27.93,SW,225,5.0,10.0,51,0.00,CLR,,0.00,WeatherDisplay:10.37,2013-01-28 20:35:00,
2013-01-28 15:40:00,50.2,33.3,27.93,SW,228,6.0,12.0,52,0.00,CLR,,0.00,WeatherDisplay:10.37,2013-01-28 20:40:00,
2013-01-28 15:45:00,50.2,33.7,27.93,SW,227,6.0,8.0,53,0.00,CLR,,0.00,WeatherDisplay:10.37,2013-01-28 20:45:00,
2013-01-28 15:50:00,50.2,34.6,27.93,SW,229,5.0,13.0,55,0.00,CLR,,0.00,WeatherDisplay:10.37,2013-01-28 20:50:00,
2013-01-28 15:55:00,50.2,35.1,27.93,SW,231,6.0,9.0,56,0.00,CLR,,0.00,WeatherDisplay:10.37,2013-01-28 20:55:00,
2013-01-28 16:05:00,50.2,36.8,27.93,SW,229,5.0,9.0,60,0.00,CLR,,0.00,WeatherDisplay:10.37,2013-01-28 21:05:00,
2013-01-28 16:10:00,50.2,37.2,27.93,SW,220,5.0,8.0,61,0.00,CLR,,0.00,WeatherDisplay:10.37,2013-01-28 21:10:00,
2013-01-28 16:15:00,50.2,38.1,27.93,SW,226,6.0,8.0,63,0.00,CLR,,0.00,WeatherDisplay:10.37,2013-01-28 21:15:00,
2013-01-28 16:20:00,50.2,38.5,27.93,SW,229,5.0,8.0,64,0.00,CLR,,0.00,WeatherDisplay:10.37,2013-01-28 21:20:00,
2013-01-28 16:25:00,50.2,38.9,27.93,SW,230,5.0,8.0,65,0.00,CLR,,0.00,WeatherDisplay:10.37,2013-01-28 21:25:00,
2013-01-28 16:30:00,50.2,39.3,27.93,SW,233,5.0,8.0,66,0.00,CLR,,0.00,WeatherDisplay:10.37,2013-01-28 21:30:00,
2013-01-28 16:35:00,50.0,39.1,27.93,SW,228,3.0,8.0,66,0.00,CLR,,0.00,WeatherDisplay:10.37,2013-01-28 21:35:00,
2013-01-28 16:40:00,50.0,39.1,27.93,SW,224,6.0,8.0,66,0.00,CLR,,0.00,WeatherDisplay:10.37,2013-01-28 21:40:00,
2013-01-28 16:50:00,50.2,40.4,27.93,SW,229,5.0,8.0,69,0.00,CLR,,0.00,WeatherDisplay:10.37,2013-01-28 21:50:00,
2013-01-28 16:55:00,50.2,40.8,27.97,SW,221,3.0,6.0,70,0.00,CLR,,0.00,WeatherDisplay:10.37,2013-01-28 21:55:00,
2013-01-28 17:00:00,50.2,40.8,27.97,SW,224,5.0,8.0,70,0.00,CLR,,0.00,WeatherDisplay:10.37,2013-01-28 22:00:00,
2013-01-28 17:05:00,50.2,40.8,27.97,SW,233,2.0,6.0,70,0.00,CLR,,0.00,WeatherDisplay:10.37,2013-01-28 22:05:00,
2013-01-28 17:10:00,50.0,40.6,27.97,SW,235,3.0,7.0,70,0.00,CLR,,0.00,WeatherDisplay:10.37,2013-01-28 22:10:00,
2013-01-28 17:15:00,50.0,41.0,27.97,SW,232,3.0,6.0,71,0.00,CLR,,0.00,WeatherDisplay:10.37,2013-01-28 22:15:00,
2013-01-28 17:20:00,50.0,41.0,27.97,SW,227,2.0,8.0,71,0.00,CLR,,0.00,WeatherDisplay:10.37,2013-01-28 22:20:00,
2013-01-28 17:25:00,49.8,41.2,27.97,SW,223,2.0,6.0,72,0.00,CLR,,0.00,WeatherDisplay:10.37,2013-01-28 22:25:00,
2013-01-28 17:35:00,49.8,41.2,27.97,SW,232,0.0,4.0,72,0.00,CLR,,0.00,WeatherDisplay:10.37,2013-01-28 22:35:00,
2013-01-28 17:40:00,49.8,41.2,27.97,SW,226,3.0,6.0,72,0.00,CLR,,0.00,WeatherDisplay:10.37,2013-01-28 22:40:00,
2013-01-28 17:45:00,49.8,41.2,27.97,SW,225,5.0,8.0,72,0.00,CLR,,0.00,WeatherDisplay:10.37,2013-01-28 22:45:00,
2013-01-28 17:50:00,49.6,41.0,27.97,SSW,212,0.0,5.0,72,0.00,CLR,,0.00,WeatherDisplay:10.37,2013-01-28 22:50:00,
2013-01-28 17:55:00,49.6,41.0,27.93,SW,217,0.0,3.0,72,0.00,CLR,,0.00,WeatherDisplay:10.37,2013-01-28 22:55:00,
2013-01-28 18:00:00,49.6,41.0,27.93,WSW,239,0.0,4.0,72,0.00,CLR,,0.00,WeatherDisplay:10.37,2013-01-28 23:00:00,
2013-01-28 18:10:00,49.5,40.8,27.97,WSW,237,0.0,4.0,72,0.00,CLR,,0.00,WeatherDisplay:10.37,2013-01-28 23:10:00,
2013-01-28 18:15:00,49.3,40.7,27.97,SW,227,1.0,5.0,72,0.00,CLR,,0.00,WeatherDisplay:10.37,2013-01-28 23:15:00,
2013-01-28 18:20:00,49.3,40.6,27.97,SSW,199,0.0,4.0,72,0.00,CLR,,0.00,WeatherDisplay:10.37,2013-01-28 23:20:00,
2013-01-28 18:25:00,49.1,40.5,27.97,South,188,0.0,4.0,72,0.00,CLR,,0.00,WeatherDisplay:10.37,2013-01-28 23:25:00,
2013-01-28 18:30:00,49.1,40.5,27.97,SSW,205,0.0,3.0,72,0.00,CLR,,0.00,WeatherDisplay:10.37,2013-01-28 23:30:00,
2013-01-28 18:35:00,48.9,40.3,27.97,SW,215,0.0,4.0,72,0.00,CLR,,0.00,WeatherDisplay:10.37,2013-01-28 23:35:00,
2013-01-28 18:40:00,48.9,40.3,27.97,SW,221,0.0,3.0,72,0.00,CLR,,0.00,WeatherDisplay:10.37,2013-01-28 23:40:00,
2013-01-28 18:45:00,48.7,40.5,27.97,SW,231,0.0,3.0,73,0.00,CLR,,0.00,WeatherDisplay:10.37,2013-01-28 23:45:00,
2013-01-28 19:00:00,48.7,40.5,27.99,SW,229,0.0,4.0,73,0.00,CLR,,0.00,WeatherDisplay:10.37,2013-01-29 00:00:00,
2013-01-28 19:05:00,48.7,40.5,27.99,SW,221,1.0,4.0,73,0.00,CLR,,0.00,WeatherDisplay:10.37,2013-01-29 00:05:00,
2013-01-28 19:10:00,48.7,40.5,27.97,SSW,208,0.0,4.0,73,0.00,CLR,,0.00,WeatherDisplay:10.37,2013-01-29 00:10:00,
2013-01-28 19:15:00,48.7,40.8,27.97,South,191,0.0,4.0,74,0.00,CLR,,0.00,WeatherDisplay:10.37,2013-01-29 00:15:00,
2013-01-28 19:20:00,48.7,40.5,27.97,South,182,0.0,4.0,73,0.00,CLR,,0.00,WeatherDisplay:10.37,2013-01-29 00:20:00,
2013-01-28 19:25:00,48.7,40.8,27.97,South,184,2.0,3.0,74,0.00,CLR,,0.00,WeatherDisplay:10.37,2013-01-29 00:25:00,
2013-01-28 19:30:00,48.7,40.8,27.97,SSW,209,2.0,5.0,74,0.00,CLR,,0.00,WeatherDisplay:10.37,2013-01-29 00:30:00,
2013-01-28 19:35:00,48.7,40.8,27.97,SW,216,2.0,4.0,74,0.00,CLR,,0.00,WeatherDisplay:10.37,2013-01-29 00:35:00,
2013-01-28 19:45:00,48.7,40.8,27.97,SW,217,0.0,4.0,74,0.00,CLR,,0.00,WeatherDisplay:10.37,2013-01-29 00:45:00,
2013-01-28 19:50:00,48.7,40.8,27.97,SW,226,0.0,3.0,74,0.00,CLR,,0.00,WeatherDisplay:10.37,2013-01-29 00:50:00,
2013-01-28 19:55:00,48.7,41.2,27.99,SSW,212,1.0,4.0,75,0.00,CLR,,0.00,WeatherDisplay:10.37,2013-01-29 00:55:00,
2013-01-28 20:05:00,48.7,41.2,27.99,South,186,2.0,3.0,75,0.00,CLR,,0.00,WeatherDisplay:10.37,2013-01-29 01:05:00,
2013-01-28 20:10:00,48.7,41.2,27.97,South,186,0.0,5.0,75,0.00,CLR,,0.00,WeatherDisplay:10.37,2013-01-29 01:10:00,
2013-01-28 20:15:00,48.7,41.2,27.97,SSW,196,0.0,5.0,75,0.00,CLR,,0.00,WeatherDisplay:10.37,2013-01-29 01:15:00,
2013-01-28 20:20:00,48.7,41.2,27.97,SSW,194,0.0,3.0,75,0.00,CLR,,0.00,WeatherDisplay:10.37,2013-01-29 01:20:00,
2013-01-28 20:25:00,48.7,41.2,27.97,SSW,195,0.0,4.0,75,0.00,CLR,,0.00,WeatherDisplay:10.37,2013-01-29 01:25:00,
2013-01-28 20:30:00,48.7,41.2,27.97,SSW,201,2.0,6.0,75,0.00,CLR,,0.00,WeatherDisplay:10.37,2013-01-29 01:30:00,
2013-01-28 20:35:00,48.8,41.2,27.97,South,190,2.0,6.0,75,0.00,CLR,,0.00,WeatherDisplay:10.37,2013-01-29 01:35:00,
2013-01-28 20:40:00,48.9,41.3,27.97,South,191,1.0,3.0,75,0.00,CLR,,0.00,WeatherDisplay:10.37,2013-01-29 01:40:00,
2013-01-28 20:45:00,48.7,41.2,27.97,SSW,202,0.0,4.0,75,0.00,CLR,,0.00,WeatherDisplay:10.37,2013-01-29 01:45:00,
2013-01-28 20:50:00,48.9,41.3,27.97,SSW,204,3.0,5.0,75,0.00,CLR,,0.00,WeatherDisplay:10.37,2013-01-29 01:50:00,
2013-01-28 20:55:00,48.9,41.7,27.97,SSW,200,2.0,6.0,76,0.00,CLR,,0.00,WeatherDisplay:10.37,2013-01-29 01:55:00,
2013-01-28 21:05:00,48.9,41.7,27.97,SSW,210,2.0,6.0,76,0.00,CLR,,0.00,WeatherDisplay:10.37,2013-01-29 02:05:00,
2013-01-28 21:10:00,48.9,41.7,27.97,SSW,202,1.0,6.0,76,0.00,CLR,,0.00,WeatherDisplay:10.37,2013-01-29 02:10:00,
2013-01-28 21:15:00,48.9,41.7,27.97,SSW,200,1.0,6.0,76,0.00,CLR,,0.00,WeatherDisplay:10.37,2013-01-29 02:15:00,
2013-01-28 21:25:00,48.9,41.7,27.97,SW,216,1.0,4.0,76,0.00,CLR,,0.00,WeatherDisplay:10.37,2013-01-29 02:25:00,
2013-01-28 21:30:00,48.9,41.7,27.97,SSW,206,0.0,4.0,76,0.00,CLR,,0.00,WeatherDisplay:10.37,2013-01-29 02:30:00,
2013-01-28 21:35:00,48.9,41.7,27.97,SSW,209,3.0,4.0,76,0.00,CLR,,0.00,WeatherDisplay:10.37,2013-01-29 02:35:00,
2013-01-28 21:40:00,49.1,41.9,27.97,SSW,208,3.0,4.0,76,0.00,CLR,,0.00,WeatherDisplay:10.37,2013-01-29 02:40:00,
2013-01-28 21:45:00,48.9,41.7,27.97,SW,216,2.0,6.0,76,0.00,CLR,,0.00,WeatherDisplay:10.37,2013-01-29 02:45:00,
2013-01-28 21:50:00,48.9,41.7,27.97,SSW,207,1.0,6.0,76,0.00,CLR,,0.00,WeatherDisplay:10.37,2013-01-29 02:50:00,
2013-01-28 21:55:00,49.1,41.9,27.99,SSW,192,2.0,6.0,76,0.00,CLR,,0.00,WeatherDisplay:10.37,2013-01-29 02:55:00,
2013-01-28 22:05:00,49.1,41.9,27.99,SW,223,2.0,6.0,76,0.00,CLR,,0.00,WeatherDisplay:10.37,2013-01-29 03:05:00,
2013-01-28 22:10:00,49.1,41.9,27.99,SSW,211,2.0,5.0,76,0.00,CLR,,0.00,WeatherDisplay:10.37,2013-01-29 03:10:00,
2013-01-28 22:15:00,49.1,41.9,27.99,SSW,206,0.0,4.0,76,0.00,CLR,,0.00,WeatherDisplay:10.37,2013-01-29 03:15:00,
2013-01-28 22:20:00,49.1,41.9,27.99,SSW,213,1.0,6.0,76,0.00,CLR,,0.00,WeatherDisplay:10.37,2013-01-29 03:20:00,
2013-01-28 22:25:00,49.1,41.9,27.99,SW,215,1.0,5.0,76,0.00,CLR,,0.00,WeatherDisplay:10.37,2013-01-29 03:25:00,
2013-01-28 22:30:00,49.1,41.9,27.99,SW,229,0.0,6.0,76,0.00,CLR,,0.00,WeatherDisplay:10.37,2013-01-29 03:30:00,
2013-01-28 22:35:00,48.9,41.7,27.99,SW,233,0.0,6.0,76,0.00,CLR,,0.00,WeatherDisplay:10.37,2013-01-29 03:35:00,
2013-01-28 22:40:00,48.9,41.7,27.99,SW,232,2.0,4.0,76,0.00,CLR,,0.00,WeatherDisplay:10.37,2013-01-29 03:40:00,
2013-01-28 22:45:00,48.9,41.7,27.99,SW,216,0.0,4.0,76,0.00,CLR,,0.00,WeatherDisplay:10.37,2013-01-29 03:45:00,
2013-01-28 22:50:00,49.1,41.9,27.99,SSW,198,0.0,4.0,76,0.00,CLR,,0.00,WeatherDisplay:10.37,2013-01-29 03:50:00,
2013-01-28 22:55:00,49.1,41.9,27.99,SSW,201,1.0,5.0,76,0.00,CLR,,0.00,WeatherDisplay:10.37,2013-01-29 03:55:00,
2013-01-28 23:00:00,49.1,41.9,27.99,SSW,205,1.0,6.0,76,0.00,CLR,,0.00,WeatherDisplay:10.37,2013-01-29 04:00:00,
2013-01-28 23:05:00,49.1,41.9,27.99,SSW,212,0.0,4.0,76,0.00,CLR,,0.00,WeatherDisplay:10.37,2013-01-29 04:05:00,
2013-01-28 23:10:00,49.1,41.9,27.99,SW,222,1.0,6.0,76,0.00,CLR,,0.00,WeatherDisplay:10.37,2013-01-29 04:10:00,
2013-01-28 23:15:00,49.1,42.2,27.99,SSW,211,0.0,6.0,77,0.00,CLR,,0.00,WeatherDisplay:10.37,2013-01-29 04:15:00,
2013-01-28 23:25:00,49.3,42.4,27.97,SSW,212,2.0,6.0,77,0.00,CLR,,0.00,WeatherDisplay:10.37,2013-01-29 04:25:00,
2013-01-28 23:30:00,49.3,42.4,27.97,SW,219,0.0,3.0,77,0.00,CLR,,0.00,WeatherDisplay:10.37,2013-01-29 04:30:00,
2013-01-28 23:35:00,49.5,42.5,27.97,SW,224,0.0,3.0,77,0.00,CLR,,0.00,WeatherDisplay:10.37,2013-01-29 04:35:00,
2013-01-28 23:40:00,49.5,42.5,27.97,SW,223,0.0,4.0,77,0.00,CLR,,0.00,WeatherDisplay:10.37,2013-01-29 04:40:00,
2013-01-28 23:45:00,49.5,42.5,27.97,SW,219,1.0,4.0,77,0.00,CLR,,0.00,WeatherDisplay:10.37,2013-01-29 04:45:00,
2013-01-28 23:50:00,49.5,42.5,27.97,SW,220,0.0,4.0,77,0.00,CLR,,0.00,WeatherDisplay:10.37,2013-01-29 04:50:00,
2013-01-28 23:55:00,49.5,42.5,27.97,SW,221,0.0,4.0,77,0.00,CLR,,0.00,WeatherDisplay:10.37,2013-01-29 04:55:00,